TimeEDT,TemperatureF,Dew PointF,Humidity,Sea Level PressureIn,VisibilityMPH,Wind Direction,Wind SpeedMPH,Gust SpeedMPH,PrecipitationIn,Events,Conditions,WindDirDegrees,DateUTC
12:53 AM,55.9,48.0,75,29.83,10.0,Calm,Calm,-,N/A,,Overcast,0,2012-10-02 04:53:00
1:53 AM,55.0,48.0,77,29.83,10.0,Calm,Calm,-,0.00,,Overcast,0,2012-10-02 05:53:00
2:53 AM,54.0,48.9,83,29.83,10.0,North,3.5,-,N/A,,Overcast,10,2012-10-02 06:53:00
3:53 AM,53.6,48.2,82,29.83,10.0,North,3.5,-,N/A,,Overcast,350,2012-10-02 07:53:00
4:53 AM,55.0,46.9,74,29.84,10.0,NNE,3.5,-,N/A,,Mostly Cloudy,20,2012-10-02 08:53:00
5:53 AM,55.0,46.9,74,29.84,10.0,Calm,Calm,-,N/A,,Mostly Cloudy,0,2012-10-02 09:53:00
6:53 AM,54.0,46.9,77,29.86,10.0,NE,4.6,-,0.00,,Overcast,50,2012-10-02 10:53:00
7:53 AM,54.0,46.9,77,29.87,10.0,East,4.6,-,N/A,,Clear,80,2012-10-02 11:53:00
8:53 AM,55.4,48.2,77,29.88,10.0,NNE,4.6,-,N/A,,Partly Cloudy,30,2012-10-02 12:53:00
9:53 AM,57.9,48.0,70,29.89,10.0,NE,4.6,-,N/A,,Overcast,40,2012-10-02 13:53:00
10:53 AM,60.1,48.9,67,29.89,10.0,ENE,4.6,-,N/A,,Overcast,70,2012-10-02 14:53:00
11:53 AM,63.0,48.9,60,29.88,10.0,East,5.8,16.1,N/A,,Scattered Clouds,80,2012-10-02 15:53:00
12:53 PM,63.0,48.9,60,29.88,-9999.0,ENE,11.5,-,N/A,,Overcast,60,2012-10-02 16:53:00
1:53 PM,68.0,48.0,49,29.87,10.0,NE,9.2,-,N/A,,Mostly Cloudy,40,2012-10-02 17:53:00
2:53 PM,66.9,46.9,49,29.86,10.0,NNE,6.9,-,N/A,,Overcast,30,2012-10-02 18:53:00
3:53 PM,69.1,46.9,45,29.85,10.0,NNE,6.9,-,N/A,,Overcast,20,2012-10-02 19:53:00
4:53 PM,69.1,48.0,47,29.85,10.0,NNE,11.5,-,N/A,,Mostly Cloudy,30,2012-10-02 20:53:00
5:53 PM,68.0,45.0,43,29.84,10.0,NE,9.2,-,N/A,,Mostly Cloudy,40,2012-10-02 21:53:00
6:53 PM,66.9,46.0,47,29.86,10.0,NE,3.5,-,N/A,,Mostly Cloudy,50,2012-10-02 22:53:00
7:53 PM,66.0,46.9,50,29.88,10.0,Calm,Calm,-,N/A,,Overcast,0,2012-10-02 23:53:00
8:53 PM,64.0,50.0,60,29.89,10.0,Calm,Calm,-,N/A,,Overcast,0,2012-10-03 00:53:00
9:53 PM,63.0,52.0,67,29.91,10.0,Calm,Calm,-,N/A,,Overcast,0,2012-10-03 01:53:00
10:53 PM,61.0,53.1,75,29.90,6.0,NE,3.5,-,0.01,Rain,Light Rain,40,2012-10-03 02:53:00
11:51 PM,59.0,55.4,88,29.92,9.0,Calm,Calm,-,0.01,,Overcast,0,2012-10-03 03:51:00
11:53 PM,59.0,55.9,90,29.93,9.0,Calm,Calm,-,0.01,,Overcast,0,2012-10-03 03:53:00